Find Starlink 31779

NORAD ID: 59744 Int'l Des: 2024-090 Owner: SPXS Country: US Constellation: starlink operational
LEOCIRCULAR

現在のビュー

3D地球を読み込み中...

About Starlink 31779

Starlink 31779 (NORAD 59744) is a starlink constellation satellite (v2 mini) launched May 13, 2024 by SPXS of US. It operates in LEO, CIRCULAR orbit with a mass of 730.00 kg.

Starlink 31779について

説明を読み込み中...

次回通過

Passes for default location (London). Set your location on the main map for personalized predictions.

高度履歴

Loading altitude history...

軌道要素

1 59744U 24090Q 26169.78441361 -.00000786 00000-0 -19035-4 0 9997
2 59744 43.0036 332.3616 0001323 265.0794 94.9906 15.27567424118902
Epoch: Jun 18, 2026 • Age: 21 hours

現在のステータス

高度 486.0 km
速度 7.62 km/s
衛星直下点 -16.29°S, 15.87°E
打ち上げ日 May 13, 2024
運用期間 2 years
タイプ internet

技術仕様

分類 Payload
質量 730.00 kg
乾燥質量 700.00 kg
総質量 730.00 kg
長さ 0.30 m
直径 4.10 m
スパン 29.00 m
形状 Box + pan
製造者 SPXS
バスタイプ Starlink V2M
フェーズステータス In Orbit
所有者/国 SPXS/US

Most Searched